www.pogodaiklimat.ru

Погода и климат >> Архив погоды >> Канада >> Baker Lake Airport


ПОГОДА в Baker Lake Airport

  • Прогноз погоды в Baker Lake Airport
  • Монитор погоды в Baker Lake Airport
  • Климат города

АРХИВ ПОГОДЫ в Baker Lake Airport

Время (UTC), дата Ветер
(напр.,м/с)
 
Видим.   Явления Облачность Т
(С)
Тd
(С)
f
(%)
Тe
(С)
Тes
(С)
Комфортность P
(гПа)
Po
(гПа)
Тmin
(С)
Tmax
(С)
R
(мм)
R24
(мм)
S
(см)
21 16.07 С 7 30 км 9/9 1500 м
[]
+15.4 +10.3 72 +14 +14 990.4 988.1
00 17.07 С 4 24 км слабый дождь 10/10 300 м
[Frnb]
+10.6 +9.5 93 +8 +8 991.0 988.7 +18.9 1
03 17.07 СЗ 5 30 км 6/6 300 м
[]
+10.8 +8.4 85 +8 +8 991.5 989.2
06 17.07 СЗ 7 24 км {дождь} 5/5 300 м
[Sc]
+7.3 +5.2 87 +3 +3 993.2 990.9 0.8 5
09 17.07 СЗ 5 30 км 3/3 600 м
[]
+3.9 +2.6 91 -1 -1 993.3 991.0
15 17.07 СЗ 8 30 км 6/6 1000 м
[]
+6.2 +2.2 76 +1 +2 995.0 992.7
18 17.07 СЗ 9 30 км {дождь} 8/8 1000 м
[Sc]
+9.4 +0.6 54 +5 +6 994.8 992.5 2
21 17.07 СЗ 9 30 км 8/8 1000 м
[]
+10.7 -0.1 47 +7 +7 995.1 992.8
00 18.07 СЗ 9 30 км {дождь} 8/8 1500 м
[Cu med, cong Ac cuf]
+10.3 -0.2 48 +7 +7 996.2 993.9 +12.7
06 18.07 СЗ 9 30 км 8/8 600 м
[Sc]
+5.7 +2.0 77 0 0 998.6 996.3 11
09 18.07 СЗ 8 30 км 10/10 300 м
[]
+5.8 +2.0 77 0 0 998.7 996.4
12 18.07 СЗ 10 30 км 10/9 600 м
[Sc Ac trans]
+6.0 +1.6 73 0 0 998.2 995.9 +5.2
15 18.07 СЗ 4 30 км 10/10 600 м
[]
+7.0 +4.2 82 +3 +3 997.1 994.8
18 18.07 СЗ 12 30 км слабый дождь 8/5 600 м
[Sc Ac trans Ci ing]
+9.4 +2.8 63 +5 +5 997.3 995.0 +5.2 +9.7 0.0
21 18.07 СЗ 11 30 км 8/8 600 м
[]
+10.4 +2.1 56 +6 +6 997.3 995.0
00 19.07 СЗ 6 30 км в посл. час дождь 9/6 600 м
[Sc Ac trans]
+9.0 +4.4 73 +5 +6 996.8 994.5 +5.2 +10.9 0.4
03 19.07 З 5 30 км 9/9 600 м
[]
+8.1 +3.6 73 +5 +5 995.5 993.2
06 19.07 З 4 30 км 9/3 1500 м
[Sc Ac trans]
+5.9 +3.9 87 +2 +2 994.1 991.8 +5.2 +10.9 182
09 19.07 СЗ 7 30 км 10/10 300 м
[]
+4.8 +1.5 79 -1 -1 993.6 991.3
12 19.07 З 7 30 км слабый дождь 10/10 600 м
[Sc]
+5.0 +2.4 83 -1 -1 993.3 991.0 +4.2 +10.9 0.0
15 19.07 СЗ 11 30 км 10/10 300 м
[]
+5.7 +3.7 87 -1 -1 991.9 989.6
18 19.07 С 11 30 км слабый дождь 9/8 300 м
[Sc Ac trans]
+6.9 +3.3 78 +1 +1 993.0 990.7 +4.2 +7.5 2
21 19.07 СЗ 11 30 км 9/9 600 м
[]
+9.5 +3.4 66 +5 +5 994.3 992.0
00 20.07 СЗ 11 30 км {дождь} 10/10 600 м
[Sc]
+8.3 +2.8 68 +3 +3 996.3 994.0 +4.2 +10.7 0.0
03 20.07 СЗ 9 30 км 4/4 600 м
[]
+6.6 +4.1 84 +1 +1 998.5 996.2
06 20.07 СЗ 10 30 км 8/4 600 м
[Sc Ci fib]
+5.5 +4.0 90 -1 -1 1000.7 998.4 +4.2 +10.7 221
09 20.07 СЗ 8 30 км 10/10 300 м
[]
+5.7 +3.6 86 0 0 1002.2 999.9
12 20.07 СЗ 8 30 км 9/9 300 м
[Sc]
+6.1 +3.0 80 +1 +1 1004.2 1001.9 +5.1 +10.7
15 20.07 СЗ 9 30 км 8/8 300 м
[]
+7.5 +2.8 72 +3 +3 1005.6 1003.3
18 20.07 СЗ 8 30 км 8/8 600 м
[Sc diur, vesp]
+10.3 +3.6 63 +7 +7 1006.5 1004.2 +5.1 +10.8
21 20.07 0 30 км 6/6 1000 м
[]
+11.5 +3.6 58 1007.6 1005.3
00 21.07 0 30 км 5/5 1000 м
[Cu med, cong]
+11.7 +3.0 55 1008.5 1006.2 +5.1 +12.6
03 21.07 0 30 км 9/9 600 м
[]
+8.9 +3.3 68 1008.8 1006.5
06 21.07 З 5 30 км 9/0 2000 м
[Ac As]
+8.3 +4.0 74 +5 +5 1009.0 1006.7 +5.1 +12.6 71
09 21.07 СЗ 4 30 км 9/0
[]
+7.9 +3.8 75 +5 +5 1009.6 1007.3
12 21.07 СЗ 5 30 км 9/0
[Ac As]
+9.9 +3.9 66 +7 +7 1010.5 1008.2 +6.6 +12.6
15 21.07 СЗ 5 30 км 6/0
[]
+15.1 +3.5 46 +14 +16 1010.6 1008.3
18 21.07 З 5 30 км 5/5
[Ac As]
+18.8 +4.0 37 +19 +22 1009.7 1007.4 +6.6 +19.1
21 21.07 ЮВ 3 30 км 5/0
[]
+17.9 +7.1 49 +18 +24 1009.2 1006.9
00 22.07 СЗ 4 30 км 1/1
[Ac trans]
+22.4 +0.3 23 +22 +23 комфорт 1008.3 1006.0 +7.7 +22.8
03 22.07 СЗ 1 30 км ясно +13.2 +5.1 58 +14 +14 1008.5 1006.2
06 22.07 ЮВ 1 30 км ясно +8.0 +3.2 72 +7 +7 1008.8 1006.5 +7.7 +22.8 13
09 22.07 В 1 30 км 5/5 1000 м
[]
+9.9 +5.7 75 +10 +10 1008.8 1006.5
12 22.07 В 2 30 км 1/0
[Ci fib]
+12.3 +6.1 66 +11 +13 1009.2 1006.9 +7.1 +22.8
15 22.07 Ю 3 30 км 1/0
[]
+17.1 +8.8 58 +17 +23 1008.9 1006.6
18 22.07 В 1 30 км 4/0
[Ac cuf Cc]
+17.6 +9.1 57 +19 +28 1008.0 1005.7 +7.1 +18.8
21 22.07 В 2 30 км 8/0
[]
+18.4 +9.1 55 +19 +25 1007.2 1004.9
00 23.07 СВ 2 30 км 9/0
[Cc]
+15.5 +7.9 61 +15 +17 1006.1 1003.8 +7.1 +18.9
03 23.07 С 2 30 км 8/0
[]
+15.8 +6.2 53 +16 +16 1004.9 1002.6
06 23.07 С 1 30 км 4/0
[Ac trans]
+13.2 +6.9 66 +14 +14 1003.9 1001.6 +7.1 +18.9 20
09 23.07 ЮЗ 4 30 км 6/0
[]
+13.4 +11.8 90 +12 +12 1002.9 1000.6
12 23.07 Ю 3 30 км 6/1 1000 м
[Cu hum Ac trans Ci fib]
+13.3 +11.6 89 +12 +13 1002.0 999.7 +11.5 +18.9
15 23.07 З 6 30 км 9/9 600 м
[]
+19.1 +12.9 67 +20 +20 1001.1 998.8
18 23.07 СЗ 8 30 км слабый дождь 10/9 600 м
[Sc Ac As]
+13.5 +12.3 92 +11 +11 1001.5 999.2 +11.5 +20.2 0.2

 

Местоположение метеостанции Baker Lake Airport (Канада): широта 64.30 долгота -96.06 высота над уровнем моря 18 м.

В архиве по умолчанию представлена погода в Baker Lake Airport за последнюю неделю. Архивные данные за месяц целиком и за предыдущие месяцы, начиная с января 2011 года, Вы можете получить, выбрав интересующий диапазон дат из раскрывающегося списка и нажав кнопку "Ввод!".

Внимание! Время в таблицах - всемирное. Для получения местного времени необходимо прибавить поправку, которая в Baker Lake Airport равна -6 ч.

Смотрите также архив погоды в соседних городах и на ближайших метеорологических станциях:

Погода в Baker Lake Climate (Канада) (4 км)
Погода в Back River MAPS (Канада) (199 км)
Погода в Rankin Inlet (Канада) (256 км)
Погода в Dubawnt Lake (Канада) (302 км)
Погода в Robertson Lake (Канада) (314 км)
Погода в Wager Bay (Канада) (357 км)
Погода в Arviat Climate (Канада) (370 км)
Погода в Arviat (Канада) (370 км)
Погода в Arviat Airport (Канада) (371 км)
Погода в Hanbury River ARS (Канада) (451 км)

Пояснения к столбцам:

Ветер - указаны скорость ветра в м/с - средняя за 10 мин, порывы в срок и между сроками (в фигурных скобках) и направление, откуда дует ветер: С - северный, СВ - северо-восточный, В - восточный, ЮВ - юго-восточный, Ю - южный, ЮЗ - юго-западный, З - западный, СЗ - северо-западный.
Видимость - горизонтальная дальность видимости в метрах или километрах. При видимости от 1 до 10 км при отсутствии осадков обычно наблюдается дымка, при ухудшении видимости до 1 км и менее - туман. В сухую погоду видимость может ухудшаться дымом, пылью или мглою.
Явления - указаны атмосферные явления, наблюдавшиеся в срок или в последний час перед сроком; фигурными скобками обозначены явления, наблюдавшиеся между сроками (за 1-3 часа до срока); квадратными скобками обозначены град или гололедные отложения с указанием их диаметра в мм.
Облачность - указаны через наклонную черту общая и нижняя облачность в баллах и высота нижней границы облаков в метрах; квадратными скобками обозначены формы облаков: Ci - перистые, Cs - перисто-слоистые, Cc - перисто-кучевые, Ac - высококучевые, As - высокослоистые, Sc - слоисто-кучевые, Ns - слоисто-дождевые, Cu - кучевые, Cb - кучево-дождевые. Подробнее классификацию облаков см. в Атласе облаков (PDF).
T - Температура воздуха - температура, измеренная на высоте 2 м над землей.
Td - Температура точки росы - температура, при понижении до которой содержащийся в воздухе водяной пар достигнет насыщения.
f - Относительная влажность воздуха - влажноcть воздуха, измеренная на высоте 2 м над землей.
Te - Эффективная температура - температура, которую ощущает одетый по сезону человек в тени. Характеристика душности погоды. При расчете учитывается влияние влажности воздуха и скорости ветра на теплоощущения человека.
Tes - Эффективная температура на солнце - температура, которую ощущает человек, с поправкой на солнечный нагрев. Характеристика знойности погоды. Зависит от высоты солнца над горизонтом, облачности и скорости ветра. Ночью, в пасмурную погоду, а также при ветре 12 м/с и более поправка равна нулю.
P - Атмосферное давление - приведенное к уровню моря атмосферное давление.
Po - Атмосферное давление - измеренное на уровне метеостанции атмосферное давление.
Tmin - Минимальная температура - минимум температуры воздуха на высоте 2 м над землей.
Tmax - Максимальная температура - максимум температуры воздуха на высоте 2 м над землей.
R - Количество осадков - Количество выпавших осадков за период времени, мм. При наведении курсора мыши на число - период времени, за который выпало указанное количество осадков.
R24 - Количество осадков - Количество выпавших осадков за 24 часа, мм.
S - Снежный покров - Высота снежного покрова, см. При наведении курсора мыши на число - состояние снежного покрова и степень покрытия местности в баллах.